Астраханка

Казахстан     51°31′38″N   69°47′50″E
темп.,
°C
ветер,
м/с
пор.,
м/с
влажн.,
%
обл.,
%
осадки,
мм/ч
давл.,
гПа
погр.,
м
2 марта, вт
вт223:00−14зюз469797 0.2 1019112
02:00−17зюз3498100 0.0 102040
05:00−18зюз2399100 0.1 101920
08:00−17юз3397100 0.1 101961
11:00−13зюз3491100 0.1 1018264
14:00−11юз4692100 0.2 1017445
17:00−12зюз4893100 0.4 1018463
20:00−15зюз5109496 0.1 1019315
3 марта, ср
ср323:00−17юз4109697 0.1 1020259
02:00−17юз5119499 0.1 1020379
05:00−21ююз5119796 0.1 1021204
08:00−20ююз6119576 0.0 1020259
11:00−14юз7129066 0.0 1020433
14:00−8юз81390100 0.0 1018647
17:00−5юз71489100 0.1 1017744
20:00−4ююз81591100 0.0 1016665
4 марта, чт
чт423:00−3ююз91692100 0.4 1015942
02:00−2ююз111887100 0.4 1014868
05:00−2ююз101789100 0.6 1014922
08:00−3ююз111887100 0.1 1012770
11:00−3ююз111886100 0.1 1012799
14:00−2ююз121792100 0.2 10101046
17:00−1юз91489100 0.8 10091028
20:00−2юз81589100 0.2 1009817
5 марта, пт
пт523:00−4зюз8149398 0.3 1011731
02:00−9з6139187 0.1 1014335
05:00−13зюз6129467 0.1 1018243
08:00−13юз6149163 0.0 1021285
11:00−8юз10188432 0.0 1021703
14:00−5юз12198290 0.0 1021952
17:00−5юз10188090 0.0 1021782
20:00−7юз10208179 0.0 1021676
6 марта, сб
сб623:00−7юз9188384 0.0 1021646
02:00−6юз91883100 0.0 1020709
05:00−7юз8188567 0.0 1020552
08:00−8юз7158769 0.0 1020496
11:00−6зюз8139084 0.0 1020496
14:00−4зюз71190100 0.1 1020552
17:00−4юз4894100 0.1 1020418
20:00−6ююз4894100 0.0 1020227